Location: *
(58.7167°N, 26.1833°E)
Time: 06:43:35
(UTC+00:00)

Spot 1 - Pass Details

Date: 25 August 2019
Orbit: 576 x 777 km, 98.7° (Epoch: 14 September)

Event Time Altitude Azimuth Distance (km) Brightness Sun altitude
Exits shadow 22:07:40 52° 220° (SW) 734 4.1 -20.6°
Maximum altitude 22:08:15 58° 256° (WSW) 687 4.1 -20.6°
Drops below altitude 10° 22:12:18 10° 336° (NNW) 1,904 7.5 -20.7°
Sets 22:14:29 0° 341° (NNW) 2,807 8.7 -20.7°
